{"data":{"norad_id":67861,"intl_designator":"2026-034M","name":"STARLINK-36325","alt_names":[],"object_type":"PAYLOAD","status":"ACTIVE","operator":null,"country":"US","launch_date":"2026-02-20","launch_site_code":"AFETR","launch_vehicle":null,"mission":null,"orbit_class":"UNKNOWN","rcs_meters":null,"size_class":null,"mass_kg":null,"dimensions":null,"purposes":["comms"],"wikipedia_slug":null,"has_3d_model":false,"image_url":null,"decayed_at":null,"tle_current":{"epoch":"2026-09-19T22:51:43.962624Z","epoch_age_seconds":113819,"freshness":"FRESH","line1":"1 67861U 26034M   26262.95259216  .00013127  00000+0  39904-3 0  9991","line2":"2 67861  53.1602  20.1104 0001433  70.4130 289.7027 15.34394462 33801","mean_motion":15.34394462,"eccentricity":0.0001433,"inclination_deg":53.1602,"raan_deg":20.1104,"arg_perigee_deg":70.413,"mean_anomaly_deg":289.7027,"bstar":0.00039904,"rev_number":3380,"period_min":93.848096800547,"perigee_km":461.73940559453,"apogee_km":463.69999512485,"semimajor_km":6840.8567003597,"source":"CELESTRAK","updated_at":"2026-09-20T09:00:43.675713Z"}}}